Location: Earls Court
(51.4833°N, 0.1833°W)
Time: 11:35:41
(UTC+00:00)

Daily predictions for brighter satellites

Satellite Brightness Start Highest point End
(mag) Time Altitude Azimuth Time Altitude Azimuth Time Altitude Azimuth
Meteor 2-3 Rocket 4.0 16:23:23 10° NNW 16:29:02 76° W 16:34:42 10° S
Cosmos 2084 Rocket 3.4 16:25:19 10° NW 16:29:09 74° SW 16:32:57 10° SE
ISS -3.6 16:26:55 10° W 16:30:17 80° SSW 16:33:39 10° ESE
Cosmos 2279 Rocket 4.3 16:25:47 10° N 16:31:49 47° ENE 16:37:48 10° SE
Aureole 3 Rocket 3.2 16:27:39 10° N 16:32:56 61° ENE 16:36:46 10° SSE
Meteor 1-27 4.3 16:28:48 10° S 16:34:20 58° E 16:39:49 10° NNE
Spot 4 Rocket 4.3 16:30:13 10° S 16:35:20 75° WSW 16:40:30 10° NNW
ATLAS CENTAUR R/B 2.3 16:33:24 10° NW 16:36:47 56° NNE 16:43:05 10° ESE
Cosmos 2237 Rocket 3.7 16:32:22 10° NW 16:37:40 43° WSW 16:42:56 10° S
Cosmos 1606 2.5 16:34:11 10° S 16:37:47 73° E 16:41:27 10° NNE
Cosmos 2058 Rocket 3.9 16:35:51 10° SSE 16:39:44 31° E 16:43:38 10° NNE
Cosmos 405 Rocket 3.2 16:43:03 10° SSE 16:46:35 38° E 16:50:11 10° NNE
Cosmos 1140 Rocket 4.3 16:43:33 10° N 16:48:05 29° NE 16:52:35 10° ESE
Cosmos 2150 Rocket 4.0 16:43:02 10° SSW 16:48:11 87° ESE 16:53:27 10° NNE
USA 306 1.1 16:49:33 10° WNW 16:51:50 79° NNE 16:53:59 10° ESE
Cosmos 1606 Rocket 3.6 16:48:11 10° S 16:52:39 90° E 16:57:07 10° N
SJ-7 4.3 16:49:44 10° SSE 16:53:42 76° ENE 16:57:45 10° N
SMAP 3.1 16:49:57 10° SSE 16:54:29 57° ENE 16:59:05 10° N
Cosmos 1726 Rocket 3.5 16:50:22 10° S 16:54:47 74° E 16:59:13 10° NNE
Cosmos 1500 3.3 16:54:30 10° N 16:57:55 44° ENE 17:01:18 10° SSE
Cosmos 1825 Rocket 4.4 16:57:23 10° NNW 17:01:36 53° W 17:05:47 10° S
Cosmos 1437 Rocket 2.5 16:58:27 10° N 17:02:10 78° ENE 17:05:54 10° SSE
Cosmos-2242 4.3 16:59:09 10° SE 17:02:18 20° E 17:05:03 12° NE
CZ-2D R/B 3.4 16:59:03 10° S 17:02:43 73° WSW 17:06:25 10° NNW
SL-8 R/B 4.2 17:02:17 10° W 17:06:59 59° S 17:11:41 10° ESE
Cosmos 2082 Rocket 4.4 17:07:12 10° N 17:07:25 10° N 17:07:37 10° N
Cosmos 2263 Rocket 2.8 17:02:35 10° S 17:07:38 37° ESE 17:12:14 12° NE
RESURS DK-1 4.3 17:06:53 10° N 17:08:43 13° NNE 17:09:17 12° NE
Tsikada Rocket 4.3 17:03:22 10° SSW 17:09:35 70° WNW 17:15:47 10° N
Cosmos 2151 2.9 17:05:31 10° N 17:09:49 84° E 17:14:05 10° SSE
Cosmos 2227 Rocket 2.3 17:04:25 10° SSW 17:10:06 85° WNW 17:15:48 10° NNE
Cosmos 2298 Rocket 4.4 17:05:41 10° SW 17:10:58 65° WNW 17:16:18 10° NNE
CZ-2C R/B 2.9 17:09:53 10° S 17:13:25 69° WSW 17:17:02 10° NNW
Cosmos 1238 Rocket 3.5 17:11:40 10° SSW 17:15:18 47° WNW 17:18:29 10° N
CORIOLIS 4.1 17:12:30 10° SSE 17:17:51 87° ENE 17:23:16 10° NNW
Helios 1B rocket 3.6 17:14:35 10° S 17:18:21 45° W 17:22:10 10° NNW
Cosmos 1603 4.1 17:13:10 10° NNW 17:18:34 41° NE 17:23:54 10° ESE
YAOGAN 1 3.9 17:19:24 19° ENE 17:19:43 19° ENE 17:22:42 10° NNE
Cosmos 2251 Rocket 4.0 17:15:20 10° NNW 17:20:21 39° NE 17:25:22 10° SE
CZ-4B R/B 3.5 17:17:17 10° SSE 17:20:51 84° ENE 17:24:30 10° NNW
Cosmos 1812 3.7 17:18:32 10° SE 17:21:30 23° E 17:22:20 22° ENE
SL-16 R/B 4.3 17:18:42 10° N 17:23:51 28° NW 17:28:59 10° WSW
CZ-4B R/B 3.5 17:18:58 10° SE 17:23:55 56° ENE 17:28:47 10° N
Cosmos 407 Rocket 3.9 17:20:10 10° NNW 17:25:03 39° NE 17:29:51 10° SE
ATLAS 2AS CENTAUR R/B 3.2 17:19:05 10° NW 17:25:44 40° NNE 17:30:16 18° E
USA 305 2.5 17:22:08 10° WNW 17:25:57 81° NNE 17:28:37 19° ESE
Meteor 1-31 Rocket 2.8 17:26:25 10° S 17:30:06 79° WSW 17:33:51 10° NNW
Lacrosse 4 Rocket 1.6 17:26:19 10° NNW 17:30:37 51° NE 17:34:32 11° SE
Cosmos 724 4.5 17:24:48 10° SSW 17:30:54 63° ESE 17:35:29 18° NE
SL-16 R/B 3.2 17:26:26 10° NW 17:31:55 50° WSW 17:37:21 10° S
Cosmos 1544 4.3 17:33:50 10° NNW 17:36:55 39° W 17:39:58 10° SSW
Cosmos 1076 Rocket 4.4 17:41:29 10° NNW 17:45:44 53° W 17:49:58 10° S
Cosmos 1943 3.1 17:40:25 10° NNW 17:46:05 77° ENE 17:51:44 10° SE
Cosmos 1607 4.0 17:43:20 10° SW 17:49:41 88° NW 17:54:20 20° NE
Cosmos 1812 Rocket 3.8 17:46:28 10° SSE 17:50:35 44° E 17:52:19 29° NE
Radarsat Rocket 3.8 17:48:12 10° SSE 17:53:59 78° ENE 18:00:06 10° NNW
Cosmos 1190 Rocket 4.4 17:48:58 10° NNW 17:54:00 41° NE 17:56:11 28° ESE
SL-08 R/B 3.8 17:54:03 33° E 17:54:29 34° E 17:58:41 10° SSE
Cosmos 1602 4.0 17:53:52 10° NNW 17:57:34 63° W 18:01:15 10° S
ADEOS 3.5 17:53:26 10° SSE 17:58:34 60° ENE 18:03:43 10° N
Cosmos 2297 Rocket 3.7 17:53:53 10° WSW 17:58:51 30° NW 18:03:49 10° NNE
Cosmos 2219 3.6 17:54:54 10° SW 18:00:27 60° NW 18:05:03 15° NNE
USA 307 3.1 17:57:45 10° WNW 18:01:35 57° SSW 18:03:12 30° SE
Cosmos 1666 3.7 17:58:26 10° NNW 18:01:49 43° W 18:05:10 10° SSW
ADEOS Rocket 4.2 18:05:29 20° NNE 18:05:29 20° NNE 18:08:09 10° N
Cosmos 1023 Rocket 4.5 17:58:44 10° NNW 18:03:56 83° WSW 18:09:03 10° SSE
Meteor 1-25 Rocket 4.1 18:00:01 10° NNW 18:05:45 81° ENE 18:11:22 10° SSE
ISS -1.9 18:03:50 10° W 18:06:46 28° SSW 18:08:24 19° SSE
USA 234 3.3 18:03:40 30° ENE 18:07:10 70° SE 18:13:41 10° SW
Cosmos 1553 Rocket 4.4 18:02:12 10° N 18:08:08 39° ENE 18:10:27 29° ESE
BREEZE-M DEB (TANK) 3.0 18:09:48 10° WSW 18:10:53 27° SW 18:10:53 27° SW
Cosmos 2344 3.7 18:06:07 10° SSW 18:13:18 49° ESE 18:16:07 34° ENE
COSMO-SKYMED 1 2.4 18:11:55 39° NNE 18:13:25 69° ESE 18:17:44 10° S
Cosmos 2082 3.9 18:12:07 10° SW 18:17:42 68° WNW 18:21:20 23° NNE
Helios 1A 3.3 18:20:32 23° N 18:23:02 65° WNW 18:27:09 10° SSW
Cosmos 2026 Rocket 3.9 18:16:59 10° S 18:23:07 63° E 18:29:23 10° NNE
Cosmos 1833 Rocket 4.1 18:19:09 10° NNW 18:22:32 22° NNE 18:22:32 22° NNE
Lacrosse 5 3.5 18:22:39 10° S 18:24:55 19° SSE 18:24:55 19° SSE
Cosmos 2195 Rocket 4.4 18:22:59 10° S 18:29:17 79° E 18:35:36 10° NNE
Cosmos 1140 Rocket 4.1 18:25:06 10° NNW 18:30:11 55° WSW 18:35:11 10° S
SME Rocket 4.2 18:27:12 10° SSE 18:32:45 78° ENE 18:41:28 10° NNW
CZ-4B R/B 3.0 18:34:38 75° N 18:34:38 75° N 18:38:33 10° NNW
Cosmos 1092 Rocket 3.8 18:30:18 10° S 18:36:25 78° E 18:42:34 10° NNE
Cosmos-2242 3.8 18:35:06 10° SSW 18:39:20 51° WNW 18:41:45 24° N
Nadezhda 4 Rocket 4.4 18:33:55 10° SSW 18:39:59 59° WNW 18:46:03 10° N
CZ-4B R/B 4.0 18:42:41 37° NNE 18:42:41 37° NNE 18:46:24 10° N
ATLAS CENTAUR R/B 3.8 18:37:15 10° WNW 18:41:42 46° SW 18:50:01 10° SSE
Meteor 1-5 Rocket 4.1 18:41:37 10° NNW 18:47:16 87° ENE 18:53:05 10° SSE
Cosmos 676 Rocket 4.3 18:42:01 10° NNW 18:46:18 52° NNE 18:46:18 52° NNE
RESURS DK-1 4.3 18:43:28 10° NNW 18:44:58 21° NNW 18:44:58 21° NNW
Cosmos 2227 4.1 18:43:27 10° SSW 18:49:13 88° ESE 18:50:09 65° NE
Cosmos 2263 Rocket 3.0 18:46:06 10° SW 18:51:28 47° NW 18:53:56 29° N
Cosmos 1844 Rocket 3.6 18:47:17 10° S 18:50:37 35° SSE 18:50:37 35° SSE
Cosmos 2082 Rocket 4.2 18:50:28 10° NNW 18:52:13 15° N 18:52:13 15° N
Cosmos 2227 Rocket 4.1 18:50:31 10° W 18:55:00 23° NW 18:58:05 15° N
YAOGAN 1 3.4 18:56:27 45° NW 18:56:27 45° NW 18:59:36 10° NNW
Cosmos 1812 4.3 18:53:12 10° SW 18:56:31 31° WNW 18:56:48 30° WNW
USA 305 4.5 18:57:12 10° W 18:59:56 28° WSW 18:59:56 28° WSW
Lacrosse 4 Rocket 3.6 19:05:12 10° NW 19:08:46 25° WSW 19:10:41 18° SSW
ATLAS 2AS CENTAUR R/B 2.5 19:10:20 10° NW 19:17:19 83° SW 19:17:44 78° S
Cosmos 1818 4.3 19:17:18 10° SW 19:21:05 47° SW 19:21:05 47° SW
USA 234 3.6 19:51:01 59° NW 19:51:01 59° NW 19:56:39 10° W
Cosmos 2344 4.2 20:20:31 10° WSW 20:26:10 46° WNW 20:26:10 46° WNW
